LAGEOS 2

Last updated on Sat Apr 13 2024 01:03:22 GMT+0100 (British Summer Time)

1 22195U 92070B 24103.27469117 -.00000009 00000+0 00000+0 0 9992 2 22195 52.6713 49.6270 0137604 198.8303 301.9379 6.47293552743892
UTC large
Height (km)
Speed (km/s)
/
Latitude / Longitude
Inclination (degrees)
Orbital Period (minutes)
Azimuth
Elevation
Range (km)
Doppler Factor

Next 0 passes for location: London (51.5072 / 0.1276)

Sorry there are no passes over London.